{"data":{"norad_id":69394,"intl_designator":"2026-124N","name":"QIANFAN-177","alt_names":[],"object_type":"PAYLOAD","status":"ACTIVE","operator":null,"country":"PRC","launch_date":"2026-06-04","launch_site_code":"TAISC","launch_vehicle":null,"mission":null,"orbit_class":"UNKNOWN","rcs_meters":null,"size_class":null,"mass_kg":null,"dimensions":null,"purposes":[],"wikipedia_slug":null,"has_3d_model":false,"image_url":null,"decayed_at":null,"tle_current":{"epoch":"2026-09-20T03:28:15.575808Z","epoch_age_seconds":65262,"freshness":"FRESH","line1":"1 69394U 26124N   26263.14462472  .00000097  00000+0  13173-3 0  9998","line2":"2 69394  89.0066 351.9969 0002136 109.3600 250.7782 13.51030442 14891","mean_motion":13.51030442,"eccentricity":0.0002136,"inclination_deg":89.0066,"raan_deg":351.9969,"arg_perigee_deg":109.36,"mean_anomaly_deg":250.7782,"bstar":0.00013173,"rev_number":1489,"period_min":106.58531112506,"perigee_km":1066.879127848,"apogee_km":1070.0603182401,"semimajor_km":7446.6067230441,"source":"CELESTRAK","updated_at":"2026-09-20T09:00:24.861840Z"}}}